"Pseudo-MPEC" for scaxx18

Created 2024 Aug 11 12:22:16 UT using Find_Orb

Click here for an explanation of pseudo-MPECs

 
 Astrometry: 
     scaxx18* B2024 07 28.94632619 08 10.530+02 21 15.24   ~85GM 17.94GVNEOCPL92
     scaxx18 KB2024 07 28.95521019 08 10.316+02 21 27.65   ~85GM 17.21GVNEOCPL92
     scaxx18  B2024 07 28.95614519 08 10.232+02 21 28.11   ~85GM 17.69GVNEOCPL92
     scaxx18  B2024 07 28.96315919 08 10.132+02 21 39.24   ~85GM 16.73GVNEOCPL92

Station data:
(L92) San Costantino  (N38.705391 E16.002110)  Italy.  Observer T. Scarmato.
   0.25-m Newtonian reflector + CCD.

Orbital elements:  scaxx18
   Perihelion 2024 Sep 17.80000 +/- 50.6 TT = 19:11:59 (JD 2460571.30000)
Epoch 2024 Jul 29.0 TT = JDT 2460520.5   Earth MOID: 0.1277   Ju: 0.3995
M 353.28254842 +/- 26               Ma: 0.0511                   AutoNEOCP
n   0.13223330 +/- 0.208            Peri.  127.35949 +/- 110
a   3.81571102 +/- 4                Node   225.58174 +/- 45
e   0.7114654 +/- 0.249             Incl.    5.98237 +/- 8
P   7.45355                H 18.52  G  0.15   U 11.7  SR
q 1.10096448 +/- 0.366    Q 6.53045756 +/- 10.9           (J2000 ecliptic)
From 4 observations 2024 July 28 (24.2 min); mean residual 0".44
Residuals in arcseconds: 
240728 L92  .20+  .28+    240728 L92  .71-  .78-    
240728 L92  .21+  .09+    240728 L92  .31+  .41+    

Ephemerides (geocentric):
Date (UTC) HH   RA             Dec           delta  r     elong  mag " sig PA
---- --------  ------------   ------------  ------ ------ -----  --- --------
2024 08 11 12  19 08 38.309   +08 03 45.05  .25021 1.2132 138.9 17.3  40d  91
2024 08 11 13  19 08 39.408   +08 04 52.70  .25004 1.2129 138.9 17.3  40d  91
2024 08 11 14  19 08 40.515   +08 06 00.38  .24986 1.2127 138.8 17.3  40d  91
2024 08 11 15  19 08 41.631   +08 07 08.09  .24968 1.2125 138.8 17.3  40d  91
2024 08 11 16  19 08 42.754   +08 08 15.83  .24950 1.2122 138.8 17.3  40d  91
2024 08 11 17  19 08 43.886   +08 09 23.61  .24933 1.2120 138.7 17.3  40d  91
2024 08 11 18  19 08 45.026   +08 10 31.42  .24915 1.2118 138.7 17.3  40d  91
2024 08 11 19  19 08 46.174   +08 11 39.26  .24897 1.2116 138.7 17.3  40d  91
2024 08 11 20  19 08 47.331   +08 12 47.13  .24879 1.2113 138.6 17.3  40d  91
2024 08 11 21  19 08 48.495   +08 13 55.04  .24862 1.2111 138.6 17.3  40d  91
2024 08 11 22  19 08 49.668   +08 15 02.99  .24844 1.2109 138.6 17.3  40d  91
2024 08 11 23  19 08 50.849   +08 16 10.96  .24826 1.2106 138.5 17.3  40d  91
2024 08 12 00  19 08 52.039   +08 17 18.97  .24809 1.2104 138.5 17.3  40d  91
2024 08 12 01  19 08 53.236   +08 18 27.02  .24791 1.2102 138.5 17.3  40d  91
2024 08 12 02  19 08 54.442   +08 19 35.10  .24774 1.2099 138.4 17.3  40d  91
2024 08 12 03  19 08 55.657   +08 20 43.21  .24756 1.2097 138.4 17.3  40d  91
2024 08 12 04  19 08 56.880   +08 21 51.35  .24738 1.2095 138.4 17.3  40d  91
2024 08 12 05  19 08 58.111   +08 22 59.53  .24721 1.2092 138.3 17.3  40d  91
2024 08 12 06  19 08 59.350   +08 24 07.75  .24703 1.2090 138.3 17.3  40d  91
2024 08 12 07  19 09 00.598   +08 25 15.99  .24686 1.2088 138.3 17.3  40d  91
2024 08 12 08  19 09 01.854   +08 26 24.28  .24668 1.2085 138.3 17.3  40d  91
2024 08 12 09  19 09 03.119   +08 27 32.59  .24650 1.2083 138.2 17.3  40d  91
2024 08 12 10  19 09 04.392   +08 28 40.94  .24633 1.2081 138.2 17.3  40d  91
2024 08 12 11  19 09 05.674   +08 29 49.33  .24615 1.2079 138.2 17.3  40d  91
2024 08 12 12  19 09 06.964   +08 30 57.75  .24598 1.2076 138.1 17.3  40d  91
2024 08 12 13  19 09 08.263   +08 32 06.20  .24580 1.2074 138.1 17.3  40d  91
2024 08 12 14  19 09 09.571   +08 33 14.69  .24563 1.2072 138.1 17.3  40d  91
2024 08 12 15  19 09 10.886   +08 34 23.21  .24545 1.2069 138.0 17.3  40d  91
2024 08 12 16  19 09 12.211   +08 35 31.77  .24528 1.2067 138.0 17.3  40d  92
2024 08 12 17  19 09 13.544   +08 36 40.36  .24510 1.2065 138.0 17.3  40d  92
2024 08 12 18  19 09 14.886   +08 37 48.99  .24493 1.2063 137.9 17.3  40d  92
2024 08 12 19  19 09 16.236   +08 38 57.65  .24476 1.2060 137.9 17.3  40d  92
2024 08 12 20  19 09 17.595   +08 40 06.35  .24458 1.2058 137.9 17.3  41d  92
2024 08 12 21  19 09 18.963   +08 41 15.08  .24441 1.2056 137.8 17.3  41d  92
2024 08 12 22  19 09 20.339   +08 42 23.85  .24423 1.2054 137.8 17.3  41d  92
2024 08 12 23  19 09 21.724   +08 43 32.65  .24406 1.2051 137.8 17.3  41d  92
2024 08 13 00  19 09 23.118   +08 44 41.49  .24388 1.2049 137.7 17.3  41d  92
2024 08 13 01  19 09 24.520   +08 45 50.36  .24371 1.2047 137.7 17.3  41d  92
2024 08 13 02  19 09 25.932   +08 46 59.27  .24354 1.2044 137.7 17.3  41d  92
2024 08 13 03  19 09 27.352   +08 48 08.21  .24336 1.2042 137.7 17.3  41d  92
2024 08 13 04  19 09 28.781   +08 49 17.19  .24319 1.2040 137.6 17.3  41d  93
2024 08 13 05  19 09 30.218   +08 50 26.21  .24302 1.2038 137.6 17.3  41d  93
2024 08 13 06  19 09 31.665   +08 51 35.26  .24284 1.2035 137.6 17.3  41d  93
2024 08 13 07  19 09 33.121   +08 52 44.34  .24267 1.2033 137.5 17.3  41d  93
2024 08 13 08  19 09 34.585   +08 53 53.47  .24250 1.2031 137.5 17.3  41d  93
2024 08 13 09  19 09 36.058   +08 55 02.62  .24232 1.2029 137.5 17.3  42d  93
2024 08 13 10  19 09 37.540   +08 56 11.82  .24215 1.2026 137.4 17.3  42d  93
2024 08 13 11  19 09 39.031   +08 57 21.05  .24198 1.2024 137.4 17.3  42d  93